{"data":{"norad_id":67035,"intl_designator":"2025-294F","name":"STARLINK-36085","alt_names":[],"object_type":"PAYLOAD","status":"ACTIVE","operator":null,"country":"US","launch_date":"2025-12-11","launch_site_code":"AFETR","launch_vehicle":null,"mission":null,"orbit_class":"UNKNOWN","rcs_meters":null,"size_class":null,"mass_kg":null,"dimensions":null,"purposes":["comms"],"wikipedia_slug":null,"has_3d_model":false,"image_url":null,"decayed_at":null,"tle_current":{"epoch":"2026-05-24T20:30:28.543392Z","epoch_age_seconds":84934,"freshness":"FRESH","line1":"1 67035U 25294F   26144.85449703  .00020198  00000+0  74126-3 0  9992","line2":"2 67035  43.0013 328.2815 0001252 269.3979  90.6729 15.27590428 26440","mean_motion":15.27590428,"eccentricity":0.0001252,"inclination_deg":43.0013,"raan_deg":328.2815,"arg_perigee_deg":269.3979,"mean_anomaly_deg":90.6729,"bstar":0.00074126,"rev_number":2644,"period_min":94.266105207619,"perigee_km":482.15885444398,"apogee_km":483.87688762368,"semimajor_km":6861.1548710338,"source":"CELESTRAK","updated_at":"2026-05-25T13:38:21.437190Z"}}}